Location: *
(17.3280°S, 114.7300°W)
Time: 07:30:11
(UTC+00:00)

Cosmos 1758 Rocket - Pass Details

Date: 05 August 2020
Orbit: 602 x 635 km, 82.5° (Epoch: 20 September)

Event Time Altitude Azimuth Distance (km) Brightness Sun altitude
Rises 12:52:23 0° 338° (NNW) 2,850 6.9 -17.1°
Reaches altitude 10° 12:54:44 10° 328° (NNW) 1,958 5.9 -16.5°
Maximum altitude 12:58:39 33° 263° (W) 1,038 4.1 -15.6°
Drops below altitude 10° 13:02:38 10° 198° (SSW) 1,996 5.9 -14.7°
Sets 13:05:04 0° 189° (S) 2,914 6.8 -14.1°
